Overview Statistics Trail Chart Weather Telemetry Raw packets
 

This is the latest recevied weather packets stored in our database for station/object KD4EED. If no packets are shown the sender has not sent any weather packets the latest 10 day(s).

<< 106 107 108 109 110 111 112 >>
Time Temp. Humidity Pressure Rain* Wind** Luminosity Snow
1787873314 31.11° C 62% 1007 hPa - - 146 W/m² -
1787873013 31.67° C 60% 1006.9 hPa - - 228 W/m² -
1787872708 31.11° C 61% 1006.9 hPa - - 246 W/m² -
1787872405 31.67° C 60% 1006.9 hPa - - 339 W/m² -
1787872104 31.67° C 60% 1007 hPa - - 183 W/m² -
1787871807 31.67° C 61% 1006.9 hPa - - 195 W/m² -
1787871494 31.67° C 61% 1007.2 hPa - - 262 W/m² -
1787871189 31.67° C 60% 1007.2 hPa - - 233 W/m² -
1787870889 31.67° C 60% 1007.3 hPa - - 210 W/m² -
1787870584 32.22° C 59% 1007.3 hPa - - 254 W/m² -
1787870279 32.22° C 58% 1007.6 hPa - - 227 W/m² -
1787869974 32.22° C 57% 1007.8 hPa - - 185 W/m² -
1787869674 32.78° C 55% 1007.7 hPa - - 195 W/m² -
1787869373 32.78° C 54% 1007.7 hPa - - 181 W/m² -
1787869073 33.33° C 53% 1007.9 hPa - - 219 W/m² -
1787868772 33.89° C 52% 1007.9 hPa - - 280 W/m² -
1787868471 34.44° C 50% 1008.2 hPa - - 276 W/m² -
1787868170 35° C 50% 1008.4 hPa - - 592 W/m² -
1787867865 35° C 50% 1008.7 hPa - - 309 W/m² -
1787867561 34.44° C 48% 1008.3 hPa - - 442 W/m² -
1787867261 34.44° C 47% 1008.4 hPa - - 258 W/m² -
1787866957 34.44° C 48% 1008.5 hPa - - 232 W/m² -
1787866652 35° C 44% 1008.5 hPa - - 182 W/m² -
1787866350 35° C 45% 1008.4 hPa - - 180 W/m² -
1787866045 35° C 46% 1008.4 hPa - - 314 W/m² -

* Rain since midnight (hover to see other rain measurements)
** Current wind speed in m/s (hover to see current wind gust speed)